Location: Newark
(39.6867°N, 100.6772°W)
Time: 08:01:37
(UTC+00:00)

ISS - Pass Details

Date: 19 September 2019
Orbit: 411 x 421 km, 51.6° (Epoch: 23 October)

Event Time Altitude Azimuth Distance (km) Brightness Sun altitude
Rises 03:00:36 0° 245° (WSW) 2,332 0.6 -25.7°
Reaches altitude 10° 03:02:44 10° 251° (WSW) 1,474 -0.5 -26.1°
Enters shadow 03:04:00 21° 260° (W) 996 -1.3 -26.3°
